Regional Weather Roundup
Issued by NWS Austin/San Antonio, TX

Current Version | Previous Version | Text Only | Print | Product List | Glossary On
Versions: 1 2 3 4 5 6 7 8 9 10 11 12 13 14 15 16 17 18 19 20 21 22 23 24 25 26 27 28 29 30 31 32 33 34 35 36 37 38 39 40 41 42 43 44 45 46 47 48 49 50
000
ASUS44 KEWX 292101
RWREWX
SOUTH TEXAS REGIONAL WEATHER ROUNDUP
NATIONAL WEATHER SERVICE AUSTIN/SAN ANTONIO TX
400 PM CDT THU SEP 29 2022

NOTE: "FAIR" INDICATED FEW OR NO CLOUDS BELOW 12,000 FEET WITH NO
SIGNIFICANT WEATHER AND/OR OBSTRUCTIONS TO VISIBILITY.

* - THESE STATIONS ARE NOT NWS OR FAA STATIONS...AND ARE NOT SUBJECT
    TO NWS AND FAA QUALITY CONTROL.

TXZ171-172-183>190-292200-
TEXAS HILL COUNTRY AND EDWARDS PLATEAU

CITY           SKY/WX    TMP DP  RH WIND       PRES   REMARKS
JUNCTION       SUNNY     91  45  20 CALM      30.13F
*LLANO         SUNNY     91  43  18 VRB6      30.10F
BURNET         SUNNY     90  46  21 W8G18     30.12F
*HORSESHOE BAY SUNNY     91  42  18 CALM      30.11F
*LAGO VISTA      N/A     94  48  20 SE5       30.11F HX  91
*KERRVILLE     SUNNY     89  44  21 E5        30.12F
*FREDERICKSBRG SUNNY     88  49  26 N5        30.13F
*ROCKSPRINGS   SUNNY     82  45  26 VRB5G12   30.23F
*BOERNE        SUNNY     88  43  20 SE3       30.12F
*CASTROVILLE   SUNNY     93  39  15 E5        30.12F
HONDO          SUNNY     90  49  24 VRB6      30.10F
*UVALDE        SUNNY     88  48  24 S6        30.14F
DEL RIO        SUNNY     88  49  25 SE13G18   30.11F
*LAUGHLIN AFB  NOT AVBL
*SPOFFORD      NOT AVBL
CARRIZO SPRGS  SUNNY     90  52  27 SE6       30.10F
*FAITH RANCH   SUNNY     90  48  24 VRB7      30.12F
$$

TXZ173-191>194-202-209-217>225-228-292200-
CENTRAL AND SOUTH CENTRAL TEXAS

CITY           SKY/WX    TMP DP  RH WIND       PRES   REMARKS
GEORGETOWN     SUNNY     91  48  22 VRB3      30.10F
*TAYLOR        SUNNY     89  47  23 E3        30.09F
AUSTIN/BERGSTM SUNNY     89  49  25 CALM      30.07F
AUSTIN/MABRY   SUNNY     92  48  22 MISG      30.09F
*PFLUGERVILLE  SUNNY     90  45  20 CALM      30.08F
SAN MARCOS     SUNNY     93  45  18 NE6       30.12F
NEW BRAUNFELS  SUNNY     93  48  21 MISG      30.07F
*RANDOLPH AFB  NOT AVBL
*SEGUIN        NOT AVBL
SAN ANTONIO    SUNNY     90  46  21 S6        30.09F
STINSON FIELD  SUNNY     92  47  21 MISG      30.06F
*KELLY FIELD   NOT AVBL
*PLEASANTON    SUNNY     92  49  23 CALM      30.10F
*KENEDY        SUNNY     89  51  26 NE5       30.10F
*LA GRANGE     NOT AVBL
*GIDDINGS      SUNNY     88  45  22 N7        30.09F
*GONZALES      SUNNY     92  50  24 E5        30.08F
$$

TXZ163>164-176>182-195>201-210>213-226-227-235-292200-
SOUTHEAST TEXAS

CITY           SKY/WX    TMP DP  RH WIND       PRES   REMARKS
COLLEGE STN    SUNNY     87  49  26 VRB6      30.08F
*BRYAN         SUNNY     85  49  28 N5        30.12F
*CALDWELL      SUNNY     85  49  28 NW3       30.10F
*CROCKETT      SUNNY     82  41  23 VRB5G14   30.11F
*BRENHAM       SUNNY     87  47  25 N6        30.23S
HUNTSVILLE     SUNNY     86  47  25 VRB3      30.09F
CONROE         SUNNY     84  49  29 N8        30.09F
HOUSTON BUSH   SUNNY     83  48  29 VRB3      30.08F
HOUSTON HOBBY  SUNNY     84  43  23 N12       30.08F
*HOUSTON SW AP NOT AVBL
PEARLAND       SUNNY     84  44  24 VRB3      30.09F
HOUSTON HOOKS  SUNNY     86  48  26 N7        30.08F
ELLINGTON FLD  SUNNY     82  45  26 NW9       30.08
SUGAR LAND     SUNNY     86  46  24 SW8       30.08F
*HOUSTON EXEC  SUNNY     84  50  30 NE7G13    30.10F
*CLEVELAND MUN NOT AVBL
*WHARTON       SUNNY     85  46  25 N7        30.09F
*COLUMBUS      FAIR      86  48  26 N5        30.09F
*EAGLE LAKE    SUNNY     87  47  25 CALM      30.09
$$

TXZ214>216-236>238-292200-
THE UPPER TEXAS COAST

CITY           SKY/WX    TMP DP  RH WIND       PRES   REMARKS
*ORANGE        SUNNY     83  38  19 N5        30.08F
PORT ARTHUR    SUNNY     82  44  26 N9        30.06F
GALVESTON      SUNNY     80  47  31 N10       30.09F
ANGLETON       SUNNY     86  47  25 N10       30.07F
*BAY CITY      SUNNY     82  49  31 CALM      30.09F
PALACIOS       SUNNY     87  49  26 VRB5      30.08F
$$

TXZ229>234-239>247-292200-
TEXAS COASTAL BEND AND RIO GRANDE PLAINS

CITY           SKY/WX    TMP DP  RH WIND       PRES   REMARKS
VICTORIA       SUNNY     90  51  26 E5        30.08F
*BEEVILLE      SUNNY     88  49  26 CALM      30.08F
ROCKPORT       SUNNY     85  60  42 SE8       30.08F
*PORT ARANSAS  SUNNY    N/A N/A N/A E8        30.12F
*PORT LAVACA   SUNNY     89  46  22 E7        30.09F
*INGLESIDE     NOT AVBL
CORPUS CHRISTI MOSUNNY   90  59  35 VRB7      30.08F
CORPUS NAS     MOSUNNY   87  58  37 E10       30.08F
*ROBSTOWN      SUNNY     89  52  28 MISG      30.09F
ALICE          SUNNY     89  54  30 VRB7      30.08F
KINGSVILLE NAS MOSUNNY   90  54  29 NE10      30.07F
COTULLA        MOSUNNY   92  52  25 VRB5      30.09F
LAREDO         SUNNY     90  56  31 E7        30.09F
$$

TXZ248>255-292200-
DEEP SOUTH TEXAS

CITY           SKY/WX    TMP DP  RH WIND       PRES   REMARKS
BROWNSVILLE    MOSUNNY   87  66  49 NE15      30.07F
PORT ISABEL    SUNNY     86  66  51 N15G24    30.08F
HARLINGEN      SUNNY     89  58  34 NE9G23    30.07F
*HEBBRONVILLE  SUNNY     88  54  32 SE5       30.12F
MCALLEN        SUNNY     90  56  31 NE9       30.08F
*WESLACO       MOSUNNY   88  59  37 NE8       30.08
FALFURRIAS     SUNNY     89  57  33 N12       30.07F
EDINBURG       PTSUNNY   88  58  36 E5        30.09F
*ZAPATA        SUNNY     90  58  33 CALM      30.10F
$$

TXZ213>215-236>238-242>244-246-247-251-254-255-292200-
CMAN STATIONS

STATION/POSITION TIME  TEMP    WIND        PRES    WAVE
                       AIR SEA DIR/SP/G            HT/PER
                 (UTC) (F)     (DEG/KT/KT) (MB)    (FT/S)
SEA RIM ST PARK  2000   77      10/  7/  9 1018.9
NORTH JETTY/GLS  2018   74 80  350/  7/ 12 1017.9
EAGLE POINT      2024   74 78   60/  5/  6 1018.7
MORGANS POINT    2024   79 81  360/  8/ 12 1018.4
MISSION/ARANSAS  2000   80     150/  8     1020.0
PORT O`CONNOR    2030   80 87   60/  4/  6 1018.9
PORT ARANSAS     2000   79      60/  8/  9   N/A
BAFFIN BAY       2030   81 84   60/  9/ 11 1019.6
PORT ISABEL      2030   81     360/ 14/ 19 1018.1
$$



USA.gov is the U.S. government's official web portal to all federal, state and local government web resources and services.